Location: ??????
(56.0120°N, 39.1740°E)
Time: 11:50:23
(UTC+00:00)

Meteor 2-8 Rocket - Pass Details

Date: 14 April 2026
Orbit: 936 x 958 km, 82.5° (Epoch: 10 May)

Event Time Altitude Azimuth Distance (km) Brightness Sun altitude
Exits shadow 19:07:23 15° 194° (SSW) 2,292 6.1 -18.5°
Maximum altitude 19:12:29 83° 283° (WNW) 954 4.4 -19.0°
Drops below altitude 10° 19:18:36 10° 12° (NNE) 2,663 7.4 -19.4°
Sets 19:21:05 0° 13° (NNE) 3,610 8.2 -19.6°
